カタログに戻る

NANKEDA-1

運用中科学SSO
NORAD 64049·PAYLOAD·🇨🇳 China
この衛星名は、まだ公式ソースで確認されていません。

打ち上げ May 17, 2025 から Jiuquan Satellite Launch Center

Loading…

次のパス (今後24時間)

TLE

最新Source: Space-Track

元期: Sep 14, 2026, 15:08 UTC

1 64049U 25103B   26257.63119590  .00002710  00000-0  12795-3 0  9997
2 64049  97.3718 327.5376 0001220 176.4970 183.6274 15.20278166 73652

AllMySatでNANKEDA-1をリアルタイム追跡

Download on the App Store